Regional Weather Roundup
Issued by NWS Goodland, KS

Home | Current Version | Previous Version | Graphics & Text | Print | Product List | Glossary On
Versions: 1 2 3 4 5 6 7 8 9 10 11 12 13 14 15 16 17 18 19 20 21 22 23 24 25 26 27 28 29 30 31 32 33 34 35 36 37 38 39 40 41 42 43 44 45 46 47 48 49 50
000
ASUS43 KGLD 200408
RWRGLD

GOODLAND FORECAST AREA HOURLY WEATHER ROUNDUP
NATIONAL WEATHER SERVICE GOODLAND KS
1000 PM MDT THU APR 19 2018

...OFFICIAL OBSERVATIONS...

CITY           SKY/WX    TMP DP  RH WIND       PRES   REMARKS
GOODLAND KS    MOCLDY    47  25  42 SE21G32   30.17S
HILL CITY KS   CLOUDY    42  27  55 E8        30.30S
IMPERIAL NEB   CLOUDY    46  26  45 E21       30.20R
MCCOOK NEB     MOCLDY    45  28  51 E13       30.26R
AKRON CO       MOCLDY    47  26  44 SE30G39   30.08S
BURLINGTON CO  CLOUDY    47  25  42 SE23G33   30.14S
LIMON CO       MOCLDY    49  20  31 SE24G35   30.06R
$$

...UNOFFICIAL OBSERVATIONS...

CITY           SKY/WX    TMP DP  RH WIND       PRES   REMARKS
COLBY KS       MOCLDY    45  30  57 SE17      30.23S
NORTON KS      CLEAR     45  28  53 E8        30.29
SHARON SPRINGS   N/A     46  26  46 SE17G25     N/A
TRIBUNE KS     MOCLDY    50  27  40 SE22G29   30.20
KIT CARSON CO    N/A     49  26  40 MISG        N/A
YUMA CO        FAIR      45  27  49 SE21G28   30.12R
$$




USA.gov is the U.S. government's official web portal to all federal, state and local government web resources and services.